TimeCST,TemperatureF,Dew PointF,Humidity,Sea Level PressureIn,VisibilityMPH,Wind Direction,Wind SpeedMPH,Gust SpeedMPH,PrecipitationIn,Events,Conditions,WindDirDegrees,DateUTC
12:53 AM,45.0,34.0,65,30.36,10.0,NNE,5.8,-,N/A,,Clear,20,2013-01-05 06:53:00
1:53 AM,42.1,33.1,70,30.36,10.0,NNW,5.8,-,N/A,,Clear,340,2013-01-05 07:53:00
2:53 AM,39.9,33.1,77,30.36,10.0,North,4.6,-,N/A,,Clear,350,2013-01-05 08:53:00
3:53 AM,43.0,33.1,68,30.36,10.0,North,4.6,-,N/A,,Clear,360,2013-01-05 09:53:00
4:53 AM,43.0,33.1,68,30.34,10.0,North,4.6,-,N/A,,Clear,10,2013-01-05 10:53:00
5:53 AM,44.1,32.0,63,30.35,10.0,NE,6.9,-,N/A,,Clear,40,2013-01-05 11:53:00
6:53 AM,45.0,33.1,63,30.35,10.0,NE,8.1,-,N/A,,Clear,50,2013-01-05 12:53:00
7:53 AM,46.0,32.0,58,30.38,10.0,NNE,6.9,-,N/A,,Clear,30,2013-01-05 13:53:00
8:53 AM,46.0,32.0,58,30.38,10.0,NNE,8.1,-,N/A,,Clear,30,2013-01-05 14:53:00
9:53 AM,48.0,32.0,54,30.39,10.0,NNE,6.9,-,N/A,,Clear,20,2013-01-05 15:53:00
10:53 AM,50.0,30.9,48,30.37,10.0,North,3.5,-,N/A,,Clear,360,2013-01-05 16:53:00
11:53 AM,50.0,33.1,52,30.33,10.0,North,3.5,-,N/A,,Clear,360,2013-01-05 17:53:00
12:53 PM,52.0,32.0,47,30.30,10.0,ENE,5.8,-,N/A,,Scattered Clouds,70,2013-01-05 18:53:00
1:53 PM,52.0,33.1,49,30.30,10.0,NNE,4.6,-,N/A,,Scattered Clouds,30,2013-01-05 19:53:00
2:53 PM,51.1,35.1,54,30.32,10.0,NNW,10.4,-,N/A,,Scattered Clouds,330,2013-01-05 20:53:00
3:53 PM,51.1,35.1,54,30.31,10.0,North,8.1,-,N/A,,Mostly Cloudy,10,2013-01-05 21:53:00
4:53 PM,50.0,36.0,59,30.31,10.0,North,9.2,-,N/A,,Overcast,350,2013-01-05 22:53:00
5:53 PM,50.0,35.1,57,30.30,10.0,NNE,9.2,-,N/A,,Overcast,20,2013-01-05 23:53:00
6:53 PM,50.0,37.0,61,30.32,10.0,North,8.1,-,N/A,,Overcast,10,2013-01-06 00:53:00
7:53 PM,50.0,37.0,61,30.31,10.0,North,8.1,-,N/A,,Overcast,10,2013-01-06 01:53:00
8:53 PM,50.0,37.9,63,30.30,10.0,North,6.9,-,N/A,,Overcast,10,2013-01-06 02:53:00
9:53 PM,48.9,39.0,69,30.28,10.0,NNE,4.6,-,N/A,,Overcast,30,2013-01-06 03:53:00
10:53 PM,50.0,37.9,63,30.27,10.0,North,5.8,-,N/A,,Overcast,360,2013-01-06 04:53:00
11:53 PM,50.0,39.0,66,30.27,10.0,Calm,Calm,-,N/A,,Overcast,0,2013-01-06 05:53:00